Thunderstorms From: 26-05-2018 21:24 Until: 27-05-2018 15:00 warning for: Thunderstorms Level: Yellow info button

Although rather usual in this region, locally or potentially dangerous phenomena are expected. (such as local winds, summer thunderstorms, rising streams or high waves) Be aware and pay attention to the latest weather updates, especially if you carry out activities exposed to weather or close to a stream or shoreline. 


Meteo18 Weather Cam more information Meteo18 Weather Cam


warning for Thunderstorms more information blitzortung!


Rain radar more information rain snow radar


Visit our other weather sites:

Template documentation
and downloads

And another site



Weather Underground History page Text

Daily Summary for July 16, 2016 Units:  Metric    English   Both
« Previous Day
Next Day »
Daily Weekly Monthly Yearly Custom
  High: Low: Average:
Temperature: -17.8 °C -13 °C -7.6 °C
Dew Point: -17.8 °C -13.5 °C -11.4 °C
Humidity: Humidity % 39 % 68 %
Wind Speed: 0 km/h 0 km/h 1.6 km/h
Wind Gust: 0 km/h - -
Wind:- - East
Pressure: 0 hPa 34625.2 hPa -
Precipitation: 0 mm    
Historical Graphs
 
 
Tabular Data for July 16, 2016
Time Temperature Dew Point Pressure Wind Wind Speed Wind Gust Humidity Rainfall Rate (Hourly)
-17.8 °C -17.8 °C 0 hPa Calm     Humidity % 0 mm
00:02 -11 °C -12.4 °C 34750.5 hPa Calm     84 % 0 mm
00:07 -11.1 °C -12.4 °C 34750.5 hPa Calm     85 % 0 mm
00:12 -11.1 °C -12.4 °C 34750.5 hPa Calm     85 % 0 mm
00:17 -11.1 °C -12.4 °C 34750.5 hPa Calm     85 % 0 mm
00:22 -11.1 °C -12.6 °C 34750.5 hPa Calm     84 % 0 mm
00:27 -11.2 °C -12.5 °C 34750.5 hPa Calm     85 % 0 mm
00:32 -11.2 °C -12.5 °C 34750.5 hPa Calm     85 % 0 mm
00:37 -11.2 °C -12.6 °C 34750.5 hPa Calm     85 % 0 mm
00:42 -11.3 °C -12.7 °C 34750.5 hPa Calm     85 % 0 mm
00:52 -11.4 °C -12.7 °C 34750.5 hPa Calm     86 % 0 mm
00:57 -11.6 °C -12.7 °C 34750.5 hPa Calm     87 % 0 mm
01:02 -11.6 °C -12.6 °C 34750.5 hPa Calm     88 % 0 mm
01:12 -11.6 °C -12.7 °C 34750.5 hPa Calm     88 % 0 mm
01:17 -11.7 °C -12.7 °C 34750.5 hPa Calm     88 % 0 mm
01:22 -11.7 °C -12.6 °C 34750.5 hPa Calm     89 % 0 mm
01:32 -11.7 °C -12.8 °C 34750.5 hPa Calm     88 % 0 mm
01:37 -11.7 °C -12.7 °C 34750.5 hPa Calm     89 % 0 mm
01:42 -11.7 °C -12.7 °C 34750.5 hPa Calm     89 % 0 mm
01:52 -11.8 °C -12.7 °C 34750.5 hPa Calm     89 % 0 mm
01:57 -11.8 °C -12.7 °C 34750.5 hPa Calm     89 % 0 mm
02:02 -11.8 °C -12.7 °C 34750.5 hPa Calm     89 % 0 mm
02:07 -11.8 °C -12.8 °C 34750.5 hPa Calm     89 % 0 mm
02:17 -11.9 °C -12.8 °C 34750.5 hPa Calm     89 % 0 mm
02:22 -12 °C -12.9 °C 34750.5 hPa Calm     90 % 0 mm
02:32 -12.1 °C -12.9 °C 34750.5 hPa Calm     91 % 0 mm
02:37 -12.1 °C -12.9 °C 34750.5 hPa Calm     91 % 0 mm
02:42 -12.2 °C -12.9 °C 34750.5 hPa Calm     91 % 0 mm
02:47 -12.2 °C -12.8 °C 34750.5 hPa Calm     92 % 0 mm
02:52 -12.2 °C -12.8 °C 34750.5 hPa Calm     92 % 0 mm
02:57 -12.2 °C -12.9 °C 34740.4 hPa Calm     92 % 0 mm
03:02 -12.3 °C -12.9 °C 34740.4 hPa Calm     92 % 0 mm
03:12 -12.4 °C -13.1 °C 34740.4 hPa Calm     92 % 0 mm
03:17 -12.4 °C -13.1 °C 34740.4 hPa Calm     92 % 0 mm
03:22 -12.4 °C -13.1 °C 34740.4 hPa Calm     92 % 0 mm
03:32 -12.4 °C -13.1 °C 34740.4 hPa Calm     93 % 0 mm
03:37 -12.5 °C -13.1 °C 34740.4 hPa Calm     93 % 0 mm
03:42 -12.4 °C -13.1 °C 34740.4 hPa Calm     93 % 0 mm
03:47 -12.5 °C -13.1 °C 34740.4 hPa Calm     93 % 0 mm
03:52 -12.6 °C -13.2 °C 34740.4 hPa Calm     93 % 0 mm
03:57 -12.5 °C -13 °C 34740.4 hPa Calm     94 % 0 mm
04:02 -12.6 °C -13.2 °C 34740.4 hPa Calm     93 % 0 mm
04:07 -12.6 °C -13.2 °C 34740.4 hPa Calm     93 % 0 mm
04:12 -12.6 °C -13.2 °C 34740.4 hPa Calm     93 % 0 mm
04:17 -12.6 °C -13.1 °C 34740.4 hPa Calm     94 % 0 mm
04:22 -12.6 °C -13.1 °C 34740.4 hPa Calm     94 % 0 mm
04:32 -12.7 °C -13.2 °C 34740.4 hPa Calm     94 % 0 mm
04:37 -12.7 °C -13.2 °C 34740.4 hPa Calm     94 % 0 mm
04:42 -12.7 °C -13.2 °C 34740.4 hPa Calm     94 % 0 mm
04:47 -12.7 °C -13.2 °C 34740.4 hPa Calm     94 % 0 mm
04:52 -12.8 °C -13.3 °C 34740.4 hPa Calm     94 % 0 mm
04:57 -12.8 °C -13.3 °C 34740.4 hPa Calm     94 % 0 mm
05:02 -12.8 °C -13.3 °C 34740.4 hPa Calm     94 % 0 mm
05:07 -12.8 °C -13.3 °C 34740.4 hPa Calm     94 % 0 mm
05:12 -12.8 °C -13.3 °C 34740.4 hPa Calm     94 % 0 mm
05:17 -12.8 °C -13.3 °C 34740.4 hPa Calm     94 % 0 mm
05:22 -12.9 °C -13.4 °C 34740.4 hPa Calm     94 % 0 mm
05:27 -12.9 °C -13.4 °C 34740.4 hPa Calm     94 % 0 mm
05:32 -12.9 °C -13.4 °C 34740.4 hPa Calm     94 % 0 mm
05:37 -12.9 °C -13.4 °C 34740.4 hPa Calm     95 % 0 mm
05:42 -12.9 °C -13.4 °C 34750.5 hPa Calm     94 % 0 mm
05:47 -13 °C -13.5 °C 34750.5 hPa Calm     94 % 0 mm
05:52 -13 °C -13.4 °C 34750.5 hPa Calm     95 % 0 mm
05:57 -13 °C -13.4 °C 34750.5 hPa Calm     95 % 0 mm
06:02 -13 °C -13.4 °C 34750.5 hPa Calm     95 % 0 mm
06:07 -12.9 °C -13.4 °C 34750.5 hPa Calm     95 % 0 mm
06:12 -12.9 °C -13.3 °C 34750.5 hPa Calm     95 % 0 mm
06:17 -12.9 °C -13.3 °C 34750.5 hPa Calm     95 % 0 mm
06:22 -12.9 °C -13.3 °C 34750.5 hPa Calm     95 % 0 mm
06:27 -12.9 °C -13.3 °C 34750.5 hPa Calm     95 % 0 mm
06:32 -12.8 °C -13.3 °C 34750.5 hPa Calm     95 % 0 mm
06:37 -12.8 °C -13.2 °C 34750.5 hPa Calm     95 % 0 mm
06:42 -12.7 °C -13.2 °C 34750.5 hPa Calm     95 % 0 mm
06:47 -12.7 °C -13.2 °C 34750.5 hPa Calm     95 % 0 mm
06:52 -12.8 °C -13.2 °C 34750.5 hPa Calm     95 % 0 mm
06:57 -12.8 °C -13.2 °C 34750.5 hPa Calm     95 % 0 mm
07:02 -12.7 °C -13.2 °C 34750.5 hPa Calm     95 % 0 mm
07:07 -12.7 °C -13.2 °C 34750.5 hPa Calm     95 % 0 mm
07:12 -12.7 °C -13.1 °C 34750.5 hPa Calm     95 % 0 mm
07:17 -12.6 °C -12.9 °C 34750.5 hPa Calm     96 % 0 mm
07:22 -12.4 °C -12.7 °C 34750.5 hPa Calm     96 % 0 mm
07:27 -12.3 °C -12.6 °C 34750.5 hPa Calm     96 % 0 mm
07:32 -12.1 °C -12.4 °C 34750.5 hPa Calm     96 % 0 mm
07:37 -12.1 °C -12.4 °C 34750.5 hPa Calm     96 % 0 mm
07:42 -11.9 °C -12.3 °C 34750.5 hPa Calm     96 % 0 mm
07:47 -11.8 °C -12.2 °C 34750.5 hPa Calm     96 % 0 mm
07:57 -11.7 °C -12 °C 34750.5 hPa Calm     96 % 0 mm
08:02 -11.5 °C -11.8 °C 34750.5 hPa Calm     96 % 0 mm
08:12 -11.3 °C -11.7 °C 34750.5 hPa Calm     95 % 0 mm
08:17 -11.2 °C -11.8 °C 34760.7 hPa Calm     93 % 0 mm
08:22 -11 °C -11.8 °C 34760.7 hPa Calm     91 % 0 mm
08:27 -10.8 °C -11.7 °C 34760.7 hPa Calm     90 % 0 mm
08:32 -10.7 °C -11.6 °C 34750.5 hPa Calm     90 % 0 mm
08:37 -10.6 °C -11.4 °C 34750.5 hPa Calm     90 % 0 mm
08:42 -10.4 °C -11.4 °C 34750.5 hPa Calm     88 % 0 mm
08:47 -10.1 °C -11.4 °C 34750.5 hPa Calm     86 % 0 mm
08:52 -9.8 °C -11.6 °C 34750.5 hPa Calm     81 % 0 mm
08:57 -9.3 °C -11.6 °C 34750.5 hPa Calm     77 % 0 mm
09:02 -8.9 °C -11.4 °C 34750.5 hPa Calm     74 % 0 mm
09:12 -8.4 °C -11.6 °C 34750.5 hPa Calm     69 % 0 mm
09:17 -8 °C -11.3 °C 34750.5 hPa Calm     68 % 0 mm
09:22 -7.6 °C -11.3 °C 34750.5 hPa Calm     65 % 0 mm
09:27 -7.3 °C -11 °C 34750.5 hPa Calm     65 % 0 mm
09:32 -7 °C -11 °C 34750.5 hPa Calm     63 % 0 mm
09:37 -6.7 °C -11.2 °C 34750.5 hPa Calm     60 % 0 mm
09:42 -6.4 °C -11.5 °C 34750.5 hPa Calm     56 % 0 mm
09:47 -6.3 °C -11.3 °C 34750.5 hPa Calm     56 % 0 mm
09:52 -6.2 °C -11.7 °C 34750.5 hPa Calm     53 % 0 mm
09:57 -6 °C -11.8 °C 34750.5 hPa Calm     51 % 0 mm
10:02 -5.9 °C -11.6 °C 34750.5 hPa Calm     52 % 0 mm
10:07 -5.7 °C -11.6 °C 34750.5 hPa Calm     51 % 0 mm
10:12 -5.6 °C -11.5 °C 34750.5 hPa Calm     51 % 0 mm
10:17 -5.5 °C -11.9 °C 34750.5 hPa Calm     48 % 0 mm
10:22 -5.6 °C -11.9 °C 34750.5 hPa Calm     48 % 0 mm
10:32 -5.4 °C -11.8 °C 34750.5 hPa Calm     48 % 0 mm
10:37 -5.2 °C -11.8 °C 34750.5 hPa Calm     47 % 0 mm
10:42 -5.1 °C -11.5 °C 34750.5 hPa Calm     48 % 0 mm
10:47 -4.9 °C -11.3 °C 34750.5 hPa Calm     48 % 0 mm
10:52 -4.8 °C -11.4 °C 34750.5 hPa Calm     47 % 0 mm
10:57 -4.9 °C -11.7 °C 34750.5 hPa Calm     46 % 0 mm
11:02 -4.9 °C -12.1 °C 34750.5 hPa Calm     44 % 0 mm
11:12 -4.9 °C -12.1 °C 34750.5 hPa Calm   2.6 km/h 44 % 0 mm
11:17 -4.8 °C -11.9 °C 34740.4 hPa Calm     44 % 0 mm
11:22 -4.6 °C -11.9 °C 34740.4 hPa Calm     43 % 0 mm
11:32 -4.5 °C -11.9 °C 34740.4 hPa NE 5.1 km/h 12.9 km/h 43 % 0 mm
11:37 -4.5 °C -12.5 °C 34740.4 hPa Calm   15.6 km/h 40 % 0 mm
11:42 -4.5 °C -11.9 °C 34740.4 hPa SE 2.6 km/h 15.6 km/h 43 % 0 mm
11:47 -4.3 °C -11.9 °C 34740.4 hPa Calm   15.6 km/h 42 % 0 mm
11:52 -4.2 °C -12.1 °C 34740.4 hPa East 5.1 km/h 12.9 km/h 41 % 0 mm
11:57 -4.2 °C -11.8 °C 34740.4 hPa ENE 2.6 km/h 12.9 km/h 42 % 0 mm
12:02 -4.2 °C -12 °C 34740.4 hPa NNW 2.6 km/h 12.9 km/h 41 % 0 mm
12:12 -4.1 °C -11.7 °C 34740.4 hPa SSW 2.6 km/h 12.9 km/h 42 % 0 mm
12:17 -3.9 °C -11.6 °C 34740.4 hPa NNE 15.6 km/h 15.6 km/h 42 % 0 mm
12:22 -3.9 °C -11.1 °C 34740.4 hPa Calm   12.9 km/h 45 % 0 mm
12:27 -3.9 °C -11.2 °C 34740.4 hPa NE 2.6 km/h 15.6 km/h 44 % 0 mm
12:32 -3.9 °C -11.6 °C 34740.4 hPa East 2.6 km/h 15.6 km/h 42 % 0 mm
12:37 -3.9 °C -11.3 °C 34740.4 hPa SSE 5.1 km/h 20.8 km/h 43 % 0 mm
12:42 -3.8 °C -11.7 °C 34740.4 hPa NNE 2.6 km/h 20.8 km/h 41 % 0 mm
12:47 -3.9 °C -11.2 °C 34740.4 hPa East 7.7 km/h 18.2 km/h 44 % 0 mm
12:52 -4 °C -11.1 °C 34740.4 hPa SE 5.1 km/h 15.6 km/h 45 % 0 mm
13:07 -3.5 °C -10.8 °C 34726.8 hPa ENE 7.7 km/h 18.2 km/h 44 % 0 mm
13:12 -3.4 °C -11.1 °C 34726.8 hPa ENE 5.1 km/h 18.2 km/h 42 % 0 mm
13:22 -3.6 °C -11.7 °C 34726.8 hPa Calm   18.2 km/h 40 % 0 mm
13:32 -3.4 °C -11.1 °C 34726.8 hPa SSW 2.6 km/h 18.2 km/h 42 % 0 mm
13:37 -3.4 °C -11.3 °C 34726.8 hPa ESE 2.6 km/h 15.6 km/h 41 % 0 mm
13:42 -3.3 °C -11 °C 34716.7 hPa ENE 2.6 km/h 15.6 km/h 42 % 0 mm
13:47 -3.3 °C -11.4 °C 34716.7 hPa Calm   15.6 km/h 40 % 0 mm
13:52 -3.2 °C -11.6 °C 34716.7 hPa West 2.6 km/h 15.6 km/h 39 % 0 mm
14:02 -3.2 °C -11.2 °C 34716.7 hPa SSE 2.6 km/h 12.9 km/h 41 % 0 mm
14:12 -3.1 °C -10.4 °C 34716.7 hPa NNE 5.1 km/h 15.6 km/h 44 % 0 mm
14:17 -3.1 °C -10.6 °C 34716.7 hPa WNW 7.7 km/h 12.9 km/h 43 % 0 mm
14:22 -3.2 °C -10.7 °C 34703.1 hPa ESE 7.7 km/h 12.9 km/h 43 % 0 mm
14:27 -3.2 °C -10.3 °C 34703.1 hPa SW 7.7 km/h 20.8 km/h 45 % 0 mm
14:32 -3.2 °C -10.8 °C 34703.1 hPa East 2.6 km/h 20.8 km/h 43 % 0 mm
14:37 -3.2 °C -10.8 °C 34703.1 hPa ENE 2.6 km/h 20.8 km/h 43 % 0 mm
14:42 -3.2 °C -11.2 °C 34703.1 hPa ENE 10.3 km/h 15.6 km/h 41 % 0 mm
14:52 -3.2 °C -10.7 °C 34703.1 hPa NNE 5.1 km/h 20.8 km/h 43 % 0 mm
15:02 -3 °C -10.4 °C 34703.1 hPa Calm   12.9 km/h 44 % 0 mm
15:07 -2.9 °C -10.3 °C 34693 hPa ENE 2.6 km/h 12.9 km/h 44 % 0 mm
15:12 -2.9 °C -10.7 °C 34693 hPa ENE 10.3 km/h 12.9 km/h 42 % 0 mm
15:17 -2.9 °C -10.7 °C 34693 hPa SSE 5.1 km/h 12.9 km/h 42 % 0 mm
15:22 -2.9 °C -10.9 °C 34693 hPa ENE 7.7 km/h 15.6 km/h 41 % 0 mm
15:27 -3 °C -10.6 °C 34693 hPa NE 2.6 km/h 18.2 km/h 43 % 0 mm
15:32 -2.9 °C -10.3 °C 34682.8 hPa NE 2.6 km/h 18.2 km/h 44 % 0 mm
15:37 -2.9 °C -10.9 °C 34682.8 hPa SSE 2.6 km/h 18.2 km/h 41 % 0 mm
15:42 -2.9 °C -10.7 °C 34682.8 hPa SE 5.1 km/h 18.2 km/h 42 % 0 mm
15:52 -2.9 °C -10.1 °C 34682.8 hPa NE 2.6 km/h 18.2 km/h 45 % 0 mm
15:57 -2.8 °C -10.6 °C 34682.8 hPa NE 5.1 km/h 18.2 km/h 42 % 0 mm
16:02 -2.7 °C -9.9 °C 34682.8 hPa Calm   18.2 km/h 45 % 0 mm
16:07 -2.6 °C -10.4 °C 34682.8 hPa NE 7.7 km/h 15.6 km/h 42 % 0 mm
16:12 -2.6 °C -10.4 °C 34682.8 hPa Calm   15.6 km/h 42 % 0 mm
16:22 -2.6 °C -10.3 °C 34682.8 hPa NNE 2.6 km/h 12.9 km/h 42 % 0 mm
16:27 -2.7 °C -10.1 °C 34682.8 hPa Calm   15.6 km/h 44 % 0 mm
16:32 -2.7 °C -10.1 °C 34669.3 hPa East 10.3 km/h 15.6 km/h 44 % 0 mm
16:37 -2.7 °C -10.3 °C 34682.8 hPa NNE 5.1 km/h 15.6 km/h 43 % 0 mm
16:42 -2.7 °C -10.4 °C 34669.3 hPa ENE 5.1 km/h 15.6 km/h 42 % 0 mm
16:47 -2.7 °C -9.7 °C 34669.3 hPa NE 2.6 km/h 15.6 km/h 46 % 0 mm
16:52 -2.7 °C -10.3 °C 34669.3 hPa East 10.3 km/h 15.6 km/h 43 % 0 mm
16:57 -2.6 °C -10 °C 34669.3 hPa NNE 2.6 km/h 18.2 km/h 44 % 0 mm
17:02 -2.6 °C -9.9 °C 34669.3 hPa Calm   18.2 km/h 44 % 0 mm
17:12 -2.7 °C -10.1 °C 34669.3 hPa East 7.7 km/h 15.6 km/h 44 % 0 mm
17:17 -2.6 °C -10.2 °C 34659.1 hPa East 7.7 km/h 23.3 km/h 43 % 0 mm
17:22 -2.6 °C -9.8 °C 34659.1 hPa East 10.3 km/h 23.3 km/h 45 % 0 mm
17:32 -2.6 °C -9.4 °C 34659.1 hPa Calm   18.2 km/h 47 % 0 mm
17:37 -2.6 °C -9.8 °C 34645.6 hPa NE 2.6 km/h 18.2 km/h 45 % 0 mm
17:42 -2.7 °C -9.9 °C 34645.6 hPa ENE 2.6 km/h 15.6 km/h 45 % 0 mm
17:47 -2.7 °C -9.6 °C 34645.6 hPa South 2.6 km/h 15.6 km/h 47 % 0 mm
17:52 -2.7 °C -9.9 °C 34645.6 hPa NE 7.7 km/h 15.6 km/h 45 % 0 mm
17:57 -2.8 °C -9.8 °C 34645.6 hPa ENE 5.1 km/h 15.6 km/h 46 % 0 mm
18:02 -2.8 °C -9.8 °C 34645.6 hPa ENE 2.6 km/h 18.2 km/h 46 % 0 mm
18:07 -2.8 °C -9.7 °C 34645.6 hPa NE 12.9 km/h 18.2 km/h 47 % 0 mm
18:12 -2.8 °C -9.8 °C 34645.6 hPa ENE 7.7 km/h 18.2 km/h 46 % 0 mm
18:17 -2.7 °C -9.6 °C 34645.6 hPa ESE 5.1 km/h 18.2 km/h 47 % 0 mm
18:22 -2.9 °C -10.1 °C 34645.6 hPa SSE 5.1 km/h 15.6 km/h 45 % 0 mm
18:27 -2.9 °C -9.7 °C 34645.6 hPa ENE 7.7 km/h 15.6 km/h 47 % 0 mm
18:32 -2.9 °C -9.4 °C 34645.6 hPa Calm   18.2 km/h 49 % 0 mm
18:37 -2.9 °C -9.6 °C 34635.4 hPa Calm   18.2 km/h 48 % 0 mm
18:42 -2.9 °C -9.6 °C 34635.4 hPa East 5.1 km/h 18.2 km/h 48 % 0 mm
18:52 -3.1 °C -9.7 °C 34635.4 hPa North 5.1 km/h 20.8 km/h 48 % 0 mm
18:57 -3.2 °C -9.8 °C 34635.4 hPa East 2.6 km/h 20.8 km/h 48 % 0 mm
19:02 -3.3 °C -9.3 °C 34635.4 hPa East 7.7 km/h 15.6 km/h 51 % 0 mm
19:12 -3.5 °C -9.9 °C 34635.4 hPa ESE 7.7 km/h 18.2 km/h 49 % 0 mm
19:17 -3.6 °C -9.8 °C 34635.4 hPa ESE 7.7 km/h 18.2 km/h 50 % 0 mm
19:22 -3.6 °C -9.8 °C 34635.4 hPa Calm   15.6 km/h 50 % 0 mm
19:32 -3.7 °C -9.8 °C 34635.4 hPa Calm   12.9 km/h 51 % 0 mm
19:37 -3.8 °C -9.3 °C 34635.4 hPa Calm   10.3 km/h 54 % 0 mm
19:42 -3.8 °C -9.7 °C 34635.4 hPa ENE 2.6 km/h 15.6 km/h 52 % 0 mm
19:52 -4 °C -9.7 °C 34635.4 hPa East 5.1 km/h 15.6 km/h 53 % 0 mm
20:02 -4.1 °C -9.8 °C 34635.4 hPa NE 7.7 km/h 12.9 km/h 53 % 0 mm
20:07 -4.2 °C -9.6 °C 34625.2 hPa ENE 7.7 km/h 15.6 km/h 55 % 0 mm
20:12 -4.2 °C -9.7 °C 34625.2 hPa Calm   15.6 km/h 54 % 0 mm
20:17 -4.3 °C -9.8 °C 34635.4 hPa NE 5.1 km/h 15.6 km/h 54 % 0 mm
20:22 -4.4 °C -9.7 °C 34635.4 hPa Calm   12.9 km/h 55 % 0 mm
20:32 -4.5 °C -9.7 °C 34635.4 hPa NE 7.7 km/h 10.3 km/h 56 % 0 mm
20:37 -4.6 °C -9.7 °C 34635.4 hPa Calm   10.3 km/h 56 % 0 mm
20:47 -4.7 °C -9.7 °C 34635.4 hPa NE 2.6 km/h 10.3 km/h 57 % 0 mm
20:52 -4.8 °C -9.6 °C 34635.4 hPa Calm   10.3 km/h 58 % 0 mm
21:02 -5 °C -9.7 °C 34635.4 hPa Calm   5.1 km/h 59 % 0 mm
21:07 -5.1 °C -9.7 °C 34635.4 hPa Calm   2.6 km/h 60 % 0 mm
21:12 -5.3 °C -9.7 °C 34635.4 hPa Calm   2.6 km/h 61 % 0 mm
21:17 -5.4 °C -9.6 °C 34635.4 hPa Calm   2.6 km/h 63 % 0 mm
21:22 -5.7 °C -9.6 °C 34635.4 hPa Calm   2.6 km/h 64 % 0 mm
21:32 -5.9 °C -9.5 °C 34635.4 hPa Calm     67 % 0 mm
21:37 -6.1 °C -9.5 °C 34635.4 hPa Calm     68 % 0 mm
21:42 -6.2 °C -9.6 °C 34635.4 hPa Calm   2.6 km/h 68 % 0 mm
21:47 -6.2 °C -9.6 °C 34635.4 hPa ENE 2.6 km/h 2.6 km/h 68 % 0 mm
21:52 -6.4 °C -9.6 °C 34635.4 hPa Calm   2.6 km/h 70 % 0 mm
21:57 -6.6 °C -9.6 °C 34635.4 hPa Calm   2.6 km/h 71 % 0 mm
22:02 -6.7 °C -9.6 °C 34635.4 hPa Calm   2.6 km/h 72 % 0 mm
22:12 -7 °C -9.5 °C 34645.6 hPa Calm     75 % 0 mm
22:17 -7.1 °C -9.5 °C 34645.6 hPa Calm     76 % 0 mm
22:22 -7.3 °C -9.7 °C 34645.6 hPa Calm     76 % 0 mm
22:27 -7.4 °C -9.7 °C 34645.6 hPa Calm     77 % 0 mm
22:32 -7.4 °C -9.5 °C 34645.6 hPa Calm     79 % 0 mm
22:37 -7.6 °C -9.6 °C 34645.6 hPa Calm     79 % 0 mm
22:42 -7.6 °C -9.6 °C 34645.6 hPa Calm     80 % 0 mm
22:47 -7.7 °C -9.6 °C 34645.6 hPa Calm     80 % 0 mm
22:52 -7.7 °C -9.7 °C 34645.6 hPa Calm     80 % 0 mm
23:02 -7.9 °C -9.6 °C 34645.6 hPa Calm     82 % 0 mm
23:12 -7.9 °C -9.6 °C 34645.6 hPa Calm     83 % 0 mm
23:17 -7.9 °C -9.4 °C 34645.6 hPa Calm     84 % 0 mm
23:22 -7.9 °C -9.4 °C 34645.6 hPa Calm     84 % 0 mm
23:27 -8 °C -9.5 °C 34645.6 hPa Calm     84 % 0 mm
23:32 -7.9 °C -9.4 °C 34645.6 hPa Calm     84 % 0 mm
23:37 -8 °C -9.5 °C 34645.6 hPa Calm     84 % 0 mm
23:42 -7.9 °C -9.4 °C 34645.6 hPa Calm     84 % 0 mm
23:47 -7.9 °C -9.4 °C 34645.6 hPa Calm   2.6 km/h 84 % 0 mm
23:52 -7.8 °C -9.3 °C 34645.6 hPa Calm   5.1 km/h 84 % 0 mm
23:57 -7.8 °C -9.3 °C 34645.6 hPa Calm   5.1 km/h 84 % 0 mm
Meteo18
Compliments of Weather Underground - 4 mb

Script developed by  Jim McMurry - jmcmurry@mwt.net Adapted for the template by  Wim van der Kuil - Leuven-Template.eu

You find our weather info also at:

European Weather Network

Weather Underground

Equipment we use:

Weather-station
Davis Vue

Weather-program
Meteobridge

Weather-server
Raspberry PI 2 B+

Provider
1 and 1

Davis Vue

Meteobridge

Raspberry PI 2 B+

1 and 1